Showing default

ION SCV-015, 58469

Orbit data source: Space-Track

ION SCV-015, 58469 is a payload satellite owned by D-ORBIT (IT) in SSO that was launched on Fri, 01 Dec 2023 UTC via an FALCON 9 launch vehicle from the Air Force Western Test Range (AFWTR). Payload-class satellites include a variety of spacecraft equipped with specific instruments for various scientific and technological missions. These include communications satellites like Starlink; space stations such as the ISS; scientific satellites like the Hubble; Earth observation satellites from companies like Planet Labs, Umbra, and HawkEye 360; GPS; miniature CubeSats for education and research; and military/defense satellites.

Loading next visibility...
Identifier
58469, 2023-185H
Orbit
SSO
Last TLE update
8 hours ago
Origin
Manufacturer
D-ORBIT
Mission
Operational Commercial Technology
Bus & Motor
ION-SC, PM200
Mass
220 kg wet, 150 kg dry
Launch date (UTC)
2023-12-01 (1 year ago)
Launch vehicle
FALCON 9
Launch site
Air Force Western Test Range (AFWTR)
Object type
Payload
Rocket body
Debris
Shape & HBR
Box, 0.4 m
Radar Cross Section
0.240 m², Medium (>0.1 m² and < 1m²)

Expand to show TLE details & history

TLE from 8 hours ago
0 ION SCV-015
1 58469U 23185H   25131.17429272  .00006416  00000-0  24681-3 0  9998
2 58469  97.6049 206.4456 0012154  82.2340 278.0277 15.26692915 79621
Epoch: 2025-05-11T04:10Z
Definitive object data (Epoch: 2025-05-11T04:10:58.891Z)
Latitude
-0.00006°
Longitude
-85.50529°
Altitude
487.645 km
Speed
7.622 km/s
True Right ascension
13h 45m 46s
True Declination
0° 00' 00"
Sunlit
Object was in full shadow at TLE epoch
Visualization TLE readout
Latitude
47.16057°
Longitude
-93.39527°
Altitude
486.096 km
Speed
7.631 km/s
Apparent Right ascension
10h 49m 50s
Apparent Declination
6° 50' 35"
Sunlit
Object is in daylight
Visualization observer readout
Local Sidereal Time
20:32:59
Azimuth
317.92° NNW
Elevation
-33.594°
Doppler factor
1
Orbital elements
Apogee altitude
491.011 km
Perigee altitude
474.334 km
Semi-major axis
6,860.809 km
Eccentricity
0.0012154
Inclination
97.6049°
RAAN
206.4456°
Arg. of periapsis
82.234°
True anomaly
277.88976°
Mean anomaly
278.0277°
Eccentric anomaly
277.95873°
Mean motion
3.81927 °/min
BSTAR
0.00024681
Orbital period
94.26 mins
Loading maneuver chart data...
Loading SW <> Apogee altitude chart data...
Loading historical data...
Loading historical data...
Loading historical data...
Loading historical data...
Loading historical data...
Loading historical data...
Loading historical data...

ION SCV-015 Visibility forecast

Observer location: undefined°, undefined°

Span
Click to sort rows by Start time (UTC) header in descending order
Start Az.
Max El. time (UTC)
Max El. Az.
Max El.
End time (UTC)
End Az.
5 mins2025-05-11 17:20:19.389Z39.406° NE2025-05-11 17:23:19.389Z114.687° SE26.452°2025-05-11 17:25:19.389Z155.582° SSE
5 mins2025-05-12 05:29:19.389Z204.655° SW2025-05-12 05:31:19.389Z259.917° W30.425°2025-05-12 05:34:19.389Z327.812° NNW
|